Simultaneous Nadir Overpasses (SNOs) Predictions

Prediction of SNOs between GOES-15 and NPP Satellite Orbit:

Table of predicted SNOs for the next 14.0 days since TLE Epoch: 2/25/2012
Index Date Time (GOES-15) GOES-15 Lat,Lon NPP Lat,Lon Distance(km) Time Diff (sec)
1 02/26/2012 22:42:10 -0.02,-135.45 -0.80,-139.04 408.76 80
2 02/27/2012 22:20:46 -0.02,-135.46 0.21,-134.51 108.46 80
3 02/29/2012 10:42:34 0.02,-135.47 0.97,-139.79 492.03 80
4 03/01/2012 10:26:30 0.02,-135.47 -0.03,-135.26 24.72 80
5 03/03/2012 22:27:02 -0.02,-135.49 -0.16,-136.03 62.63 80
6 03/04/2012 22:08:17 -0.02,-135.49 0.85,-131.50 453.59 80
7 03/06/2012 10:30:06 0.02,-135.48 0.34,-136.78 148.44 80
8 03/07/2012 10:14:02 0.02,-135.48 -0.72,-132.26 367.46 80
9 03/08/2012 22:35:58
